Wind_Speed
6 8 11 12 9 7 8 10 13 14 15 16 17 16 15 14 9 4 4 3 3 6 7 6 5 7 9 6 5 3 2 2 3 4 4 3 2 2 2 5 7 7 9 16 18 17 15 13 11 11 12 13 13 13 15 15 14 13 13 13 15 20 24 24 23 25 27 28 28 28 27 27 26 26 26 26 24 24 23 23 22 22 22 22 24 26
8 12 11 10 8 7 10 12 14 15 15 16 16 15 15 11 8 6 5 4 4 6 5 7 6 7 9 8 7 5 3 4 2 3 4 4 3 3 4 5 8 10 12 15 17 17 16 14 13 12 12 13 13 12 14 16 15 14 13 13 16 18 20 21 21 22 24 25 26 28 27 27 27 25 24 24 23 24 25 25 24 23 24 23 23 26
10 11 8 7 8 10 12 13 14 14 15 16 15 15 14 10 8 8 7 5 5 5 6 7 7 8 10 8 7 6 5 5 3 2 2 3 4 3 4 5 6 11 14 15 17 18 17 15 14 13 14 14 13 12 13 15 16 15 14 13 16 19 20 20 19 20 20 17 17 22 24 24 24 23 23 22 22 24 25 25 25 25 25 24 24 26
9 9 6 7 10 11 13 14 13 14 15 15 13 13 13 9 7 8 6 5 6 8 8 6 8 9 10 10 8 6 5 5 3 2 1 1 2 2 3 5 6 11 15 15 17 19 19 18 15 14 15 15 15 13 13 15 16 18 16 14 15 18 20 21 20 17 16 14 13 16 20 20 19 19 21 22 22 23 23 24 24 24 24 25 25 27
10 10 8 8 11 12 13 13 12 13 13 13 14 12 12 10 9 9 9 8 9 10 9 7 9 9 11 11 10 8 6 6 5 3 2 1 1 2 3 6 7 11 15 15 17 19 20 22 19 16 16 16 17 15 14 15 17 19 19 17 16 17 18 20 19 15 15 18 17 17 20 17 13 13 16 19 21 21 21 22 23 23 24 25 27 27
9 9 9 10 11 11 13 13 12 12 12 13 14 12 11 11 11 12 13 13 11 11 11 9 6 7 11 12 11 10 8 7 6 4 2 1 1 2 3 7 9 11 15 15 16 19 19 23 23 20 19 18 19 18 17 16 16 19 21 21 20 20 20 19 18 15 16 20 21 22 23 18 12 12 13 16 18 18 20 21 23 24 25 26 28 28
7 9 10 11 10 11 12 11 9 9 11 13 12 10 11 12 13 15 16 16 14 11 9 11 9 6 14 15 12 11 9 9 7 5 3 0 1 2 3 6 10 13 16 16 17 17 18 22 23 23 23 22 22 20 20 20 18 19 20 23 24 23 23 21 21 18 18 20 23 27 27 22 16 13 13 15 16 16 18 21 23 25 26 27 29 29
7 9 9 11 12 11 10 10 10 10 12 14 12 11 13 14 16 17 17 16 15 12 7 11 14 6 12 15 12 12 11 10 8 6 4 1 2 4 5 7 10 13 16 19 18 16 18 21 20 21 24 25 26 24 23 23 22 21 20 22 24 25 26 25 25 24 21 21 22 26 31 28 20 14 15 17 18 16 17 20 23 24 25 27 29 29
6 4 8 12 11 8 9 11 12 12 13 15 15 14 16 16 17 18 17 17 15 9 7 12 15 5 7 12 12 13 12 11 9 6 4 1 2 4 7 8 10 12 15 20 19 15 17 20 18 20 22 24 27 27 26 26 25 25 23 22 23 25 27 28 29 28 26 25 23 24 30 30 24 18 19 19 20 20 19 20 23 25 25 26 28 29
6 8 13 10 6 7 11 12 12 13 14 16 16 16 17 17 17 16 15 18 15 6 6 11 13 8 5 11 12 13 14 12 9 5 4 2 1 4 9 9 10 12 13 18 20 17 18 19 16 18 20 22 25 26 26 27 28 29 28 27 26 25 26 28 29 31 30 30 28 27 30 32 29 25 23 22 23 23 23 24 25 26 25 25 27 28
10 15 13 3 4 9 11 13 13 13 15 15 15 16 17 17 17 15 13 16 12 5 10 11 13 11 3 7 13 14 12 10 8 5 3 0 2 6 10 10 9 11 11 16 20 18 20 19 15 17 19 20 24 25 26 27 27 30 31 31 31 30 29 29 28 30 31 32 33 32 33 35 34 30 27 27 26 25 26 29 30 30 29 28 29 29
8 8 5 2 7 12 11 14 14 11 12 12 12 14 14 13 12 9 8 8 4 4 11 13 12 4 4 6 10 11 8 6 7 5 2 1 3 5 9 10 10 14 16 18 18 17 20 21 18 19 18 17 21 23 24 25 26 28 31 33 35 34 34 33 32 31 30 31 33 34 37 40 39 34 31 31 29 28 30 32 32 34 34 32 32 32
5 3 3 4 9 14 14 16 15 11 11 11 12 12 10 9 7 4 2 1 1 4 8 12 9 6 11 10 10 12 9 7 7 4 2 2 6 7 10 13 11 14 18 17 16 17 23 24 22 22 20 18 18 20 21 22 23 26 29 31 35 37 37 38 38 36 34 32 33 34 37 41 44 40 34 34 33 31 35 37 37 36 35 33 31 32
5 2 1 4 9 14 15 15 14 12 13 13 11 11 9 6 5 3 3 2 1 4 8 12 9 4 12 13 13 12 9 8 7 4 3 6 8 8 13 14 11 12 15 16 17 21 23 24 23 23 22 20 18 18 19 20 20 23 26 29 32 35 38 40 41 40 39 37 35 35 35 39 46 46 40 39 38 35 35 39 41 39 37 35 31 31
8 4 1 6 11 13 13 12 12 13 14 11 9 10 8 6 4 3 2 2 3 6 10 12 7 4 10 11 12 8 7 6 4 4 5 7 9 12 14 13 11 13 15 16 18 21 22 22 23 23 23 22 20 19 19 19 20 21 24 27 30 32 36 39 42 42 42 41 39 38 37 37 44 49 48 47 44 39 36 37 41 40 38 37 33 33
9 4 4 8 10 10 11 11 11 11 8 8 10 8 7 6 6 7 5 5 7 8 7 5 4 10 11 10 8 6 6 5 4 6 8 9 12 16 17 14 13 14 15 16 17 19 20 21 20 21 22 21 20 19 19 20 21 22 22 24 27 30 33 36 40 43 44 44 43 42 41 40 42 47 51 50 47 44 42 39 39 39 37 36 35 34
9 6 6 8 10 12 14 12 11 10 7 9 11 9 8 9 9 8 7 7 7 6 2 5 10 11 11 9 7 5 4 4 6 8 12 13 12 13 15 16 15 15 17 18 18 18 19 20 19 19 19 20 20 19 19 20 21 22 21 21 22 25 29 32 36 41 43 45 45 45 44 44 45 46 48 49 48 47 46 44 43 42 40 39 37 36
9 11 9 7 8 11 15 13 11 13 12 9 9 11 12 8 4 4 5 5 5 4 2 7 10 7 6 7 5 4 5 7 9 11 13 13 13 13 13 16 15 16 18 17 17 17 19 20 20 19 18 18 18 19 19 20 21 21 20 19 18 19 23 27 30 35 40 43 46 47 47 47 48 48 48 49 49 48 48 47 46 45 44 42 39 38
8 12 8 5 5 8 12 11 9 13 13 9 8 11 11 6 6 7 5 4 5 4 2 5 10 7 7 7 4 7 9 10 12 14 14 12 13 15 15 16 16 16 18 17 16 17 17 18 18 19 19 19 19 19 19 20 20 20 18 18 18 17 18 21 24 28 32 37 42 46 48 49 50 51 51 50 49 49 48 48 48 46 46 44 41 40
6 8 6 5 6 9 10 9 8 10 11 9 8 8 8 7 8 9 6 5 6 4 4 2 3 7 8 7 5 9 10 11 13 15 15 12 13 14 15 17 17 18 19 18 18 18 18 19 20 20 21 21 21 20 19 19 19 18 17 17 18 18 18 18 20 23 26 30 34 40 45 49 51 52 53 53 52 51 50 48 48 47 47 45 43 42
5 6 9 9 9 8 6 8 8 10 9 9 9 8 10 10 9 8 4 4 6 4 3 5 2 5 5 5 7 10 10 12 14 14 14 14 14 16 16 16 18 19 20 21 22 22 22 22 22 21 21 21 21 19 18 17 17 16 16 16 17 17 18 19 20 21 24 26 28 32 37 44 50 53 54 55 55 54 53 51 49 48 47 47 45 44
4 7 10 11 11 5 4 5 8 11 10 8 7 8 10 11 11 8 2 5 8 7 3 5 2 6 6 4 7 11 11 12 15 14 14 15 16 17 17 17 19 19 19 23 27 25 23 23 23 21 20 19 19 18 17 16 16 16 16 16 16 17 18 19 20 21 23 25 26 28 30 34 41 47 52 54 56 57 57 55 53 51 50 49 48 47
5 7 8 10 9 2 3 6 10 14 13 8 8 9 9 10 10 8 6 7 11 9 5 7 4 5 6 5 8 13 12 11 13 13 15 16 16 17 17 17 20 19 16 20 26 24 22 23 23 21 20 18 18 18 17 15 15 16 16 16 16 16 18 19 19 21 22 23 25 27 28 30 33 37 43 48 53 56 58 59 58 55 54 52 50 49
7 6 8 12 7 4 2 8 6 13 13 8 7 10 10 10 9 7 6 7 9 8 6 7 2 7 5 7 11 13 13 13 13 14 16 17 16 17 17 16 19 19 17 18 22 24 25 24 21 20 19 19 19 19 17 16 16 17 17 17 17 17 18 19 20 21 22 23 25 26 28 30 31 33 36 40 45 50 54 58 60 59 58 56 54 52
6 4 9 12 5 4 3 5 1 8 13 9 8 11 12 14 13 8 5 6 5 4 6 7 4 3 4 12 14 13 14 14 14 15 17 18 16 17 18 18 18 19 21 21 21 25 27 25 24 22 20 19 19 19 19 18 18 18 18 18 18 17 17 18 19 21 22 24 25 27 29 31 32 33 35 36 39 42 46 50 55 59 60 59 58 56
4 5 8 9 5 3 4 5 5 9 12 9 11 14 13 14 14 10 6 5 4 5 7 7 8 11 16 17 17 15 14 16 16 16 17 17 17 17 17 18 18 20 23 23 22 25 26 25 25 24 20 18 18 19 20 20 20 18 17 17 17 17 16 16 17 18 19 21 23 25 28 30 32 34 36 38 39 40 42 44 47 52 56 59 60 59
5 7 7 6 7 8 8 8 8 10 13 12 13 14 13 13 13 8 5 5 6 10 8 2 6 18 20 18 18 15 15 18 18 17 17 17 18 18 16 16 19 22 22 21 22 24 24 23 25 23 19 17 18 19 20 21 20 18 15 14 15 16 17 16 16 16 17 18 20 22 24 27 29 32 35 38 41 42 43 43 45 47 49 53 57 59
5 8 7 6 8 9 10 11 10 9 13 14 13 13 14 14 11 5 4 6 7 9 8 4 9 17 16 15 15 13 16 19 18 17 17 17 18 18 17 17 21 23 22 20 20 22 22 22 24 23 19 17 17 18 19 20 19 16 14 14 15 17 17 17 17 17 18 20 22 23 25 26 28 30 31 34 38 43 45 45 46 46 47 48 51 55
7 9 8 7 10 12 12 11 9 8 11 14 13 12 13 12 8 4 5 7 8 9 11 13 16 15 13 14 13 13 17 19 18 17 16 17 18 16 17 19 20 22 21 20 20 21 21 22 24 23 19 16 16 17 19 19 17 15 14 15 17 18 18 18 18 19 21 23 26 29 29 29 28 29 30 30 32 38 43 46 47 48 48 48 48 50
8 8 8 9 11 13 10 8 9 9 10 13 13 13 13 10 7 6 7 7 9 12 12 14 15 10 10 12 12 14 18 19 18 17 15 17 16 13 16 21 21 21 21 21 23 23 22 23 23 21 17 15 15 17 19 19 16 14 14 16 18 19 18 18 19 20 23 26 30 32 32 30 29 28 28 29 30 31 36 42 47 50 50 49 49 49
8 9 9 9 12 13 8 5 6 7 9 13 14 14 13 11 8 8 10 9 10 12 11 11 14 11 10 11 13 16 18 19 18 16 15 16 14 13 17 20 20 21 21 23 25 24 23 24 22 18 15 13 14 16 18 18 16 13 14 16 18 17 17 18 20 22 24 28 32 32 30 28 28 27 27 28 29 29 31 35 41 47 51 52 50 49
9 10 10 10 12 11 7 5 7 9 12 13 14 14 13 10 9 9 11 11 10 11 12 12 13 12 10 12 15 17 17 18 17 15 15 15 14 14 15 17 20 23 22 23 25 25 25 25 21 16 13 12 13 16 17 17 15 13 13 15 16 16 17 19 21 22 25 28 31 30 28 25 25 27 27 27 27 28 29 31 35 41 47 52 52 50
8 10 11 10 11 11 9 10 11 13 12 8 7 8 9 8 9 11 12 12 12 12 11 10 10 10 12 14 16 17 17 16 16 14 13 16 17 15 15 20 25 24 21 21 24 25 25 24 21 17 14 13 14 15 16 16 16 14 14 14 15 17 18 19 21 22 25 27 28 28 26 25 26 27 27 27 26 26 28 30 33 36 40 47 52 51
9 11 11 10 11 12 12 12 13 12 8 4 2 4 5 6 9 12 12 12 13 13 12 9 9 11 13 15 16 16 16 16 14 11 12 16 18 17 21 26 25 22 19 20 23 24 24 24 21 17 15 15 14 14 15 17 17 16 15 15 15 17 19 20 21 22 24 25 27 28 27 25 26 26 26 26 26 26 27 28 29 32 35 40 46 49
11 11 11 11 11 13 13 11 10 7 4 3 1 2 3 5 6 10 13 12 11 11 11 10 11 11 13 15 15 14 15 14 10 9 13 17 18 22 28 26 21 19 20 22 24 24 24 24 23 20 17 15 14 15 16 16 17 17 16 15 16 17 19 20 21 21 22 25 28 29 28 25 24 24 23 24 25 26 27 27 26 27 30 33 38 43
10 10 11 11 10 12 12 9 7 8 5 1 4 3 4 4 5 8 11 11 9 8 8 9 10 12 14 15 13 12 14 12 7 7 14 19 21 28 29 20 17 20 21 22 24 24 23 23 23 22 20 18 16 16 17 17 17 18 17 16 16 17 18 19 21 21 22 25 28 30 27 23 21 21 21 22 24 24 25 25 24 23 23 26 30 35
10 9 10 10 8 9 10 10 10 11 8 5 5 5 4 5 7 9 10 9 7 5 6 8 11 13 13 12 11 12 13 11 6 6 16 21 23 26 21 15 17 21 21 21 23 24 23 21 22 23 22 21 20 19 18 18 18 18 18 16 16 17 17 19 21 20 21 25 28 28 24 21 18 18 19 20 22 22 21 20 21 20 21 23 26 30
9 10 9 8 7 7 11 11 9 9 8 5 7 7 7 8 11 13 11 8 4 1 5 9 11 12 12 11 11 12 13 12 9 9 18 24 21 18 15 14 16 19 19 21 22 23 23 21 20 22 23 23 23 21 19 18 18 18 17 16 16 16 16 18 19 19 20 24 27 25 21 18 17 16 16 17 17 17 16 16 16 18 20 21 24 27
8 10 9 9 10 10 12 10 8 8 7 5 6 4 6 8 13 15 11 6 2 5 8 10 10 12 12 10 10 12 13 13 11 11 19 22 18 15 14 14 16 17 18 19 21 23 23 22 20 21 22 23 23 22 20 18 17 17 16 16 17 16 15 16 16 17 18 21 23 23 21 18 16 15 15 15 14 14 13 14 14 16 17 19 21 25
7 8 9 11 12 11 11 10 11 10 7 6 7 6 7 11 13 12 6 2 4 6 8 10 11 11 11 10 10 11 12 13 12 14 19 21 18 14 13 14 16 17 17 18 20 22 24 23 21 20 22 23 24 23 21 18 16 16 16 17 17 15 13 14 15 15 16 17 19 21 21 18 15 14 14 15 13 13 13 13 12 12 14 17 20 23
7 8 10 11 11 11 11 12 13 11 8 11 13 12 12 13 10 6 3 3 7 9 10 11 11 10 9 10 10 11 13 15 16 18 20 20 17 15 13 13 14 16 17 18 20 21 23 24 21 19 20 22 22 23 22 18 15 15 15 16 16 15 13 13 13 13 13 13 15 17 18 18 17 14 13 13 13 14 13 9 7 8 11 15 19 22
9 9 11 12 12 12 11 12 12 9 8 11 12 11 12 9 4 6 8 6 7 11 12 12 11 10 9 10 10 12 15 16 16 17 18 19 18 17 15 13 14 15 16 18 19 20 22 23 21 19 19 20 21 22 21 18 15 14 14 15 16 15 13 11 11 12 12 12 13 13 14 16 17 17 16 12 9 9 9 6 5 7 9 9 12 16
8 9 10 11 12 12 12 11 10 7 7 9 10 10 11 8 5 10 13 9 6 8 10 11 11 10 9 9 10 12 14 15 15 15 16 18 19 18 15 13 14 15 16 17 19 19 20 22 21 19 18 19 20 21 20 18 15 13 13 14 15 15 13 11 11 12 12 11 12 12 13 14 16 18 19 17 12 11 10 7 5 4 5 7 8 9
9 9 10 9 8 9 9 7 5 6 9 11 9 7 9 10 9 9 10 8 6 6 8 11 12 12 11 10 10 10 11 12 14 15 16 18 19 18 16 14 14 15 15 15 17 18 19 21 21 20 17 17 19 20 19 17 14 12 12 13 14 14 13 12 12 12 11 11 11 11 12 12 14 17 18 18 15 14 14 10 8 7 5 3 2 4
8 9 12 11 9 8 8 10 11 11 11 12 12 10 9 11 11 8 7 6 5 6 8 10 12 13 11 10 11 10 10 13 15 15 16 17 18 17 16 15 14 15 16 15 16 18 19 20 21 20 16 16 17 18 17 16 14 12 11 12 13 13 12 11 11 11 12 12 11 10 10 11 13 15 17 17 16 15 14 12 11 11 11 10 7 4
9 11 13 12 10 9 10 11 11 9 7 8 11 11 9 9 9 8 8 7 6 7 8 9 12 12 12 12 12 10 11 14 16 15 16 17 17 17 17 17 16 16 18 18 18 18 18 19 20 20 16 15 15 16 16 16 15 13 12 12 13 13 11 10 10 11 11 11 11 12 12 12 12 13 14 15 15 14 13 11 10 10 10 10 9 8
9 10 9 8 8 8 9 9 9 8 7 8 9 10 10 10 8 7 8 8 7 7 8 10 13 14 15 17 14 10 10 13 14 14 15 16 17 17 18 18 17 18 19 19 19 18 17 18 20 20 18 15 14 15 15 16 16 15 15 13 13 13 13 12 11 11 11 11 12 12 13 12 11 11 12 13 13 13 12 11 11 9 9 9 9 9
10 11 10 9 11 11 11 11 11 10 8 8 9 10 10 9 8 7 8 7 7 9 10 11 14 15 14 14 13 11 13 14 14 15 15 15 17 19 20 19 19 19 19 19 19 18 18 17 18 19 18 17 15 14 15 15 16 15 16 15 14 13 14 15 14 14 13 13 13 12 12 12 11 10 10 11 12 12 12 12 11 10 9 7 7 8
14 15 13 12 13 13 12 12 12 10 8 8 10 10 9 9 8 8 10 9 8 10 11 14 18 19 13 8 9 12 14 14 14 15 16 17 18 19 19 19 20 20 19 18 18 18 19 18 18 17 18 18 17 16 15 16 15 15 15 15 15 14 14 14 15 15 15 15 15 15 14 14 12 11 10 10 11 12 13 13 12 11 10 9 8 9
14 14 11 11 14 14 12 10 10 9 8 8 8 9 10 10 9 8 10 9 8 10 14 18 20 17 10 6 7 10 12 13 14 15 17 18 18 18 18 19 21 22 20 18 18 18 19 19 18 17 18 18 18 18 17 16 16 16 15 15 15 15 15 15 14 14 14 14 15 16 16 15 15 14 13 12 12 13 14 15 14 14 13 12 12 12
13 13 12 12 14 13 11 10 9 9 8 7 7 8 10 11 10 9 9 7 6 8 12 15 14 11 7 6 6 7 9 11 13 15 16 17 18 19 18 19 22 23 20 18 18 18 19 19 18 18 17 18 18 18 17 16 16 17 16 15 15 16 17 16 16 15 15 15 14 14 15 15 15 16 16 15 15 16 16 17 17 16 16 15 14 15
Wind_Direction
287 286 293 294 289 287 294 306 306 306 307 304 303 301 298 304 322 337 282 245 226 267 262 235 225 195 186 190 190 199 211 187 199 204 207 227 257 296 332 352 346 335 309 290 288 296 299 300 301 301 298 299 301 292 279 273 270 268 264 258 248 238 235 231 220 210 210 212 215 214 209 209 205 200 203 205 204 204 203 207 209 208 204 207 213 218
295 288 290 299 300 298 301 305 304 303 305 301 299 298 294 299 329 323 278 271 266 270 252 220 225 208 187 188 195 194 203 202 196 200 209 224 247 295 310 325 334 322 301 293 293 292 294 297 294 294 295 296 300 296 283 272 267 268 265 258 253 247 240 237 231 221 218 219 221 221 215 215 213 204 206 211 210 207 207 210 211 212 211 211 211 213
294 288 287 293 300 303 304 304 303 302 303 301 296 295 294 298 314 299 273 268 257 251 247 216 209 202 183 185 196 196 210 209 203 217 221 238 234 256 307 317 322 307 291 292 296 290 287 291 290 289 289 291 293 293 286 272 260 259 259 253 244 243 242 236 233 232 229 218 216 222 219 222 224 209 205 212 214 212 212 211 212 213 213 213 212 209
289 303 309 298 305 306 304 305 304 304 302 300 299 299 296 287 289 294 280 268 255 251 260 233 213 200 177 182 192 191 206 203 189 191 157 240 254 245 291 313 332 309 290 286 291 289 284 283 284 285 284 285 286 286 286 276 262 253 250 249 240 235 237 232 228 234 234 220 209 210 212 221 221 202 200 210 213 215 214 213 215 214 213 216 216 211
287 307 315 308 314 310 305 307 307 309 305 301 307 307 302 294 289 297 292 276 258 249 260 250 223 199 179 184 187 185 194 193 180 168 133 85 10 8 327 320 339 320 299 291 285 283 283 279 277 279 280 279 280 279 278 275 267 258 249 242 236 231 235 229 225 233 234 228 218 201 199 209 212 199 202 210 213 216 217 215 217 218 219 219 219 218
284 298 314 314 312 306 307 308 308 311 307 306 308 298 301 309 298 292 292 287 272 254 249 246 237 203 191 190 184 184 182 185 185 173 179 114 28 6 344 325 335 328 313 308 293 284 283 277 272 273 275 276 275 273 272 271 266 262 256 247 239 233 234 228 225 238 239 230 222 210 199 192 202 214 211 213 215 216 216 215 217 221 224 222 221 224
284 303 312 313 313 312 311 309 315 323 310 305 309 299 296 301 296 291 289 292 288 273 247 231 239 209 197 198 188 184 180 180 182 173 191 221 346 320 330 321 327 328 320 318 306 295 288 278 272 270 271 271 271 269 268 267 265 262 257 253 249 242 239 231 225 233 239 231 225 226 219 198 195 215 215 214 218 217 216 216 219 226 228 224 222 225
297 307 310 316 320 317 316 317 321 325 308 299 308 309 296 291 292 290 284 283 278 279 282 244 240 213 193 204 190 180 182 176 176 173 166 191 297 318 323 314 325 327 321 318 311 306 294 283 279 273 269 267 266 265 263 262 261 260 257 254 252 248 246 241 233 230 233 231 222 230 231 213 199 213 218 217 219 221 223 222 223 229 231 225 222 225
317 321 327 325 322 311 314 322 319 316 304 296 305 304 297 296 293 289 286 288 287 286 295 254 243 235 163 189 192 183 178 172 178 179 156 192 304 331 309 308 332 326 318 317 314 315 302 288 285 279 272 268 264 262 262 259 256 254 253 253 252 249 248 247 246 241 236 233 223 225 229 217 205 214 224 223 222 223 226 228 228 230 230 225 220 222
302 299 313 324 341 323 316 320 314 309 300 297 306 302 297 295 289 291 288 294 311 315 266 243 237 252 146 163 192 186 178 180 181 173 161 185 309 311 300 315 338 329 323 317 314 322 310 294 292 285 275 271 268 265 262 259 254 251 248 248 249 249 249 249 250 249 244 239 230 224 225 217 207 210 222 224 223 225 229 231 230 232 233 227 220 221
280 295 308 320 353 335 325 325 317 306 303 304 309 305 301 296 288 289 276 281 308 302 266 248 223 239 198 168 198 183 173 182 172 167 165 100 309 306 322 333 332 325 324 313 313 323 310 298 300 292 279 273 271 269 265 261 257 252 247 245 245 244 246 248 249 248 247 244 237 230 227 220 210 211 222 224 221 225 230 230 226 225 226 224 222 224
269 291 327 273 311 336 337 329 324 313 312 316 315 312 315 311 299 292 268 269 293 271 271 253 231 245 97 159 184 158 147 154 152 164 154 34 324 336 338 323 324 328 321 316 322 321 302 296 303 298 286 275 270 269 268 266 262 256 250 245 243 242 241 243 244 245 244 243 240 235 230 224 216 216 224 227 226 229 234 234 226 219 215 214 218 225
263 199 9 304 319 348 347 330 329 329 326 328 321 316 325 322 316 327 309 285 227 266 279 260 269 35 99 138 137 134 136 125 120 115 100 359 345 350 320 305 315 320 317 327 329 310 297 296 299 296 286 280 274 271 271 268 265 262 256 249 245 242 240 240 240 241 241 242 241 238 234 228 222 219 223 229 234 240 241 236 229 224 220 215 218 225
301 203 64 338 336 345 347 341 338 335 327 327 324 317 324 324 319 343 348 8 308 291 301 281 277 87 121 131 123 132 127 103 98 74 17 336 334 325 319 323 321 309 317 328 319 310 307 301 299 295 284 280 280 277 275 270 268 267 263 256 250 244 241 240 240 239 239 239 240 240 238 232 223 219 222 231 239 243 239 231 228 230 231 229 229 230
307 294 13 351 343 338 345 350 337 326 319 322 330 319 327 343 322 329 359 347 312 291 303 301 282 159 136 127 123 125 104 95 84 34 353 341 338 326 329 331 318 320 330 321 311 313 313 305 300 293 284 281 282 282 281 278 276 272 266 260 254 248 244 241 241 241 239 237 238 238 238 235 226 221 225 233 239 240 238 233 231 234 237 238 241 242
303 318 27 351 342 334 340 346 331 327 326 331 337 327 339 348 302 297 303 279 276 275 289 339 84 129 133 124 119 118 105 91 47 6 338 337 339 330 327 313 295 310 319 308 308 312 311 309 299 286 283 285 287 288 288 287 286 282 274 264 257 251 246 243 241 241 240 238 237 236 235 235 231 228 230 235 238 239 243 244 242 242 243 246 252 255
313 327 353 338 334 331 333 341 343 349 349 335 338 339 335 317 287 294 305 283 278 277 266 80 93 118 127 115 104 111 95 26 355 345 338 335 326 316 320 317 306 308 311 309 312 312 310 309 297 287 289 291 292 294 292 292 292 290 284 273 263 253 248 245 242 241 241 239 238 237 235 234 234 233 235 238 240 242 245 247 247 248 249 249 251 253
318 312 318 334 336 333 334 342 1 4 357 346 343 343 339 321 290 321 325 304 305 296 198 135 137 149 143 119 88 57 19 351 345 341 330 318 313 313 316 317 314 313 310 306 310 313 309 303 295 295 300 297 296 297 295 295 295 293 287 278 272 260 251 249 246 244 242 240 239 238 238 237 236 235 236 238 241 243 245 246 248 249 249 249 248 247
320 308 312 350 339 332 343 351 5 1 357 358 346 344 353 351 333 340 338 322 322 323 327 145 144 126 105 110 68 19 8 353 348 342 323 307 321 332 326 318 315 315 312 310 314 314 307 303 301 304 308 306 301 298 296 296 295 293 287 279 276 270 260 254 251 250 247 244 242 240 239 239 239 238 238 238 239 240 242 244 245 247 247 248 247 246
328 310 305 348 331 327 356 16 12 359 356 357 354 357 1 343 328 332 331 325 315 304 321 328 109 80 80 91 35 8 3 348 343 341 331 327 332 325 318 320 323 323 322 320 317 309 302 301 304 309 311 308 304 302 300 297 295 293 286 279 277 275 270 264 257 254 251 248 246 243 241 241 241 241 240 240 240 240 240 241 242 243 244 245 245 245
327 299 291 315 317 318 19 42 16 7 2 357 1 6 0 351 340 323 314 352 335 308 322 325 3 87 84 67 23 359 356 351 343 340 337 337 332 319 317 329 330 327 326 318 307 301 300 302 307 312 310 306 305 305 303 301 298 295 289 282 279 277 275 272 266 260 255 252 250 247 244 243 243 243 242 241 241 241 241 241 241 241 241 242 242 242
321 309 292 308 319 333 66 31 7 22 24 22 26 13 0 359 353 332 324 33 348 318 320 312 310 90 72 50 18 353 352 349 335 333 334 330 327 325 330 336 329 325 327 320 310 304 303 309 316 315 310 308 308 306 305 305 301 298 294 289 284 282 279 276 272 267 262 258 255 252 250 247 245 246 245 244 243 243 243 242 241 241 242 241 241 240
310 314 290 297 312 37 81 328 1 35 37 39 42 28 12 7 6 350 334 353 335 315 309 296 281 92 65 28 15 357 349 338 325 330 332 324 324 329 333 334 326 321 318 315 315 312 310 316 321 316 311 309 307 306 307 306 303 301 298 293 288 284 281 278 275 271 267 264 260 256 254 251 249 248 247 247 245 244 244 244 242 241 242 243 243 241
306 314 309 303 286 175 230 296 349 40 30 22 19 13 4 352 351 341 317 321 317 317 336 318 275 118 75 4 6 357 348 343 338 335 326 321 327 330 330 329 324 319 313 311 317 315 312 316 320 315 312 309 307 308 309 308 309 308 303 297 290 282 278 277 275 273 270 268 265 263 260 257 255 253 251 249 248 246 245 245 245 243 241 241 242 242
316 315 323 315 285 181 233 274 324 24 12 5 343 336 335 327 326 330 314 294 295 334 349 313 275 134 1 342 352 353 348 346 340 330 322 323 329 328 327 325 322 325 324 321 319 311 307 313 317 312 307 308 309 311 311 313 314 312 306 299 292 283 275 272 272 272 272 270 268 266 265 263 261 258 256 254 251 249 247 245 245 245 243 241 241 241
306 302 314 318 322 338 325 313 325 340 344 339 321 322 327 325 327 335 326 297 299 327 315 293 294 293 294 312 335 346 344 337 329 326 326 327 325 324 323 323 327 330 325 322 322 313 307 313 318 314 307 307 311 311 312 314 314 310 303 296 295 291 284 278 277 276 277 276 274 271 268 266 264 261 258 257 255 253 250 247 244 244 244 243 241 240
286 292 287 279 294 315 320 312 308 318 324 320 318 326 332 329 327 330 320 306 317 318 302 267 324 306 297 310 331 338 334 328 325 325 326 324 321 321 322 326 332 326 316 321 324 313 308 315 320 317 308 303 308 312 313 315 315 310 301 299 303 305 301 296 293 289 287 284 281 278 275 272 268 264 260 256 255 254 253 250 247 244 243 243 242 240
293 292 285 272 277 292 304 302 294 303 314 312 316 330 334 329 324 318 293 287 304 309 282 265 325 322 319 328 332 330 325 323 323 324 323 322 320 322 327 330 330 321 316 323 318 307 310 320 321 318 307 298 304 309 312 316 316 309 305 307 312 313 309 304 300 299 298 297 297 295 289 280 273 268 263 258 253 251 251 251 249 247 244 242 241 240
284 284 288 292 290 293 299 297 290 297 308 307 310 323 327 325 318 311 298 279 275 281 278 294 318 328 330 327 322 324 323 318 318 318 318 319 320 325 330 326 321 320 325 328 318 313 321 324 321 319 310 297 301 307 312 316 314 307 305 310 314 312 308 304 304 304 304 307 309 308 303 293 280 271 266 262 256 251 249 248 248 248 246 243 241 241
279 282 288 296 300 299 295 288 287 293 299 299 301 306 314 319 313 309 318 302 279 281 290 302 312 325 343 332 317 319 318 313 313 314 314 319 322 327 328 322 320 325 330 329 323 322 328 328 327 323 311 298 300 307 312 317 315 308 306 311 315 314 309 306 305 305 306 310 314 312 307 298 289 279 272 266 261 256 251 248 247 247 246 243 241 241
276 281 296 309 304 296 291 288 291 295 294 291 290 290 297 312 316 311 320 319 299 299 309 308 303 316 347 338 318 316 315 311 312 314 316 321 323 322 322 323 329 334 331 327 328 331 334 335 337 331 315 303 303 308 314 317 316 311 311 314 317 317 314 312 310 309 312 316 318 317 311 301 291 285 279 272 267 263 258 253 249 246 245 244 241 240
286 287 305 315 303 297 302 308 309 311 299 283 279 285 289 299 314 317 322 324 317 311 310 299 296 310 329 326 318 314 310 311 315 316 319 320 314 312 317 325 332 332 327 327 333 339 341 341 344 340 323 309 308 311 315 319 318 314 311 313 317 319 320 319 316 316 319 322 321 319 313 304 294 287 284 280 275 272 268 262 255 248 245 244 242 240
290 289 300 308 303 302 305 307 312 311 297 273 272 294 291 289 310 322 325 327 324 314 302 286 289 315 327 322 315 311 312 316 315 316 322 315 302 298 306 315 322 325 325 328 335 341 344 345 346 342 328 317 313 312 316 322 323 316 308 309 316 323 325 325 323 322 322 324 325 322 314 304 296 290 287 284 282 279 275 269 262 254 247 243 242 240
276 278 287 293 293 294 301 310 310 299 293 304 322 310 298 300 314 321 326 333 327 313 303 293 298 320 326 316 310 312 316 315 312 320 321 307 300 301 304 309 318 326 327 329 335 342 347 348 346 341 332 322 315 312 316 324 325 320 312 310 316 324 329 330 327 323 323 325 327 324 315 303 296 292 289 287 285 282 278 273 268 261 252 244 241 240
271 274 280 284 283 289 299 307 302 301 334 6 255 250 289 311 324 319 319 326 319 301 296 296 300 310 311 305 305 313 314 312 325 334 303 287 292 301 303 309 322 329 327 329 336 344 349 349 347 345 338 327 316 311 313 320 325 323 316 311 315 321 325 328 326 324 326 329 328 325 317 304 297 294 290 287 286 282 277 275 272 266 255 244 238 237
261 263 275 283 281 286 293 293 297 319 339 253 229 265 293 309 335 322 311 313 306 289 288 293 297 302 301 300 307 314 311 312 344 338 290 279 289 297 301 316 332 328 325 330 337 345 349 349 348 347 343 334 321 312 311 316 322 325 322 315 313 314 319 326 330 330 333 335 333 330 324 311 300 298 293 288 285 282 277 275 272 265 253 242 237 235
260 259 265 275 274 277 289 295 298 305 299 241 241 280 285 304 332 327 314 309 298 281 293 301 302 301 299 301 308 312 311 313 333 310 278 276 286 295 306 333 335 324 325 331 338 344 347 348 347 344 343 339 330 319 313 314 318 323 325 318 308 308 315 326 333 335 338 341 340 335 327 317 309 303 297 291 286 281 277 275 269 258 247 241 236 232
255 259 254 259 267 275 290 297 295 299 302 258 246 278 299 312 330 334 318 292 273 329 322 308 306 304 302 305 309 312 313 313 314 291 277 281 295 310 327 340 330 323 326 331 337 345 347 347 345 341 339 337 334 327 318 313 314 317 322 320 310 308 317 327 335 339 341 343 344 341 331 321 313 306 302 298 290 280 275 272 268 260 254 249 243 236
252 257 250 255 265 273 285 291 286 289 296 261 245 296 323 313 325 333 319 282 303 356 329 310 311 312 308 309 313 315 315 310 302 286 283 295 315 330 334 334 329 327 331 333 337 343 347 348 344 339 336 334 334 332 324 315 310 310 320 328 320 312 318 329 336 342 342 342 347 351 348 336 321 308 303 299 291 281 273 264 259 258 256 252 249 247
248 246 243 253 264 271 276 276 279 284 287 269 267 276 278 289 310 322 321 343 352 327 309 310 315 312 307 309 314 316 312 301 293 291 297 308 324 332 331 333 332 331 333 333 335 342 349 350 343 337 336 335 335 336 331 322 313 310 319 331 326 316 320 331 335 338 343 346 352 358 360 353 337 320 305 297 288 276 262 253 250 253 254 250 246 247
248 242 242 249 260 268 266 266 276 282 271 263 268 271 280 299 316 308 297 351 331 310 308 312 310 307 306 310 315 312 298 286 287 297 305 311 321 329 331 334 333 330 330 332 334 342 349 351 346 339 337 335 334 335 334 329 320 312 315 327 330 323 324 334 334 331 339 352 358 1 5 4 357 344 326 309 295 281 266 252 241 240 249 257 256 255
262 255 249 246 249 258 266 273 281 279 258 259 270 280 291 308 322 276 274 297 316 317 319 315 309 309 305 305 310 306 295 289 293 301 306 310 318 326 331 335 336 335 335 335 337 342 348 351 350 343 338 337 337 337 337 335 327 317 315 324 332 330 327 332 333 329 332 343 350 355 2 7 4 1 359 351 329 309 298 289 265 238 227 232 246 255
265 262 260 257 253 250 250 259 272 281 279 278 282 290 296 303 289 273 275 277 287 304 313 313 310 305 299 301 308 303 298 298 299 301 304 309 316 323 328 334 337 340 340 337 337 342 347 350 352 348 342 341 342 341 341 339 334 324 318 323 332 334 330 324 323 324 325 330 339 346 352 360 3 3 4 7 4 355 349 346 335 299 243 212 213 226
267 266 264 267 268 259 249 257 293 312 299 293 291 283 276 275 276 281 287 289 285 292 307 314 309 300 294 295 300 304 305 300 297 299 306 310 316 323 329 332 334 338 340 337 337 343 347 350 354 352 345 343 345 345 345 345 342 332 323 322 329 336 335 325 319 321 319 317 328 342 349 355 0 359 357 357 355 353 354 359 4 355 335 317 277 223
271 266 260 260 265 268 272 288 305 304 294 295 304 303 277 263 270 286 296 293 292 298 307 312 306 299 294 291 296 305 305 298 297 301 305 310 317 326 333 334 333 336 338 337 339 343 346 351 354 353 348 345 346 347 349 352 352 345 333 324 326 334 337 328 322 325 323 316 318 329 337 345 354 355 352 351 350 347 345 345 347 346 345 350 349 322
275 272 269 270 269 269 273 280 291 295 283 281 297 308 305 290 284 285 285 284 289 294 298 300 294 286 279 283 296 306 299 295 298 301 305 312 317 323 332 337 338 337 338 340 343 343 346 351 352 351 354 352 346 347 353 358 360 357 348 335 329 330 332 328 323 323 324 321 318 318 321 327 340 347 347 346 346 342 339 338 337 332 327 329 331 323
263 258 263 272 273 275 278 278 285 294 285 278 283 288 292 291 285 281 284 285 288 295 296 290 285 280 278 282 291 301 297 293 296 300 307 314 316 319 329 336 339 337 336 340 343 342 345 351 349 350 357 1 352 349 355 0 3 4 0 350 338 331 328 325 323 320 318 317 316 313 312 315 326 336 337 335 334 331 329 331 333 328 321 316 316 312
265 259 259 266 269 273 277 278 283 286 280 278 277 274 278 282 277 281 289 286 289 298 294 285 289 296 296 292 292 296 297 297 299 302 308 312 314 319 327 333 336 337 336 339 342 344 346 348 347 348 356 3 2 359 0 1 2 4 4 360 353 344 335 327 323 320 317 315 313 312 312 312 316 319 318 317 317 315 315 320 325 327 322 310 303 304
280 279 275 266 264 270 278 281 280 274 263 262 267 268 275 277 277 291 300 296 295 297 293 296 304 307 304 299 297 297 299 301 301 303 309 313 314 317 323 328 333 335 334 337 342 344 344 344 343 345 350 356 2 7 9 6 3 3 3 3 2 358 350 340 332 325 320 317 314 313 312 311 310 309 304 303 305 305 305 309 316 322 322 315 310 310
274 279 277 263 258 264 273 278 278 271 259 255 263 275 283 283 283 294 301 302 302 298 297 302 306 303 296 295 299 300 303 305 306 309 313 315 315 316 318 324 332 334 332 332 339 343 344 343 342 341 343 347 354 1 7 7 6 4 2 2 4 2 358 355 349 340 332 326 319 314 311 308 305 304 301 299 298 298 299 302 306 311 314 315 317 320
262 265 265 260 256 256 254 254 264 275 271 259 260 275 288 292 291 297 311 313 295 282 289 295 297 296 296 296 296 303 307 306 308 313 315 314 315 315 317 324 331 333 329 329 336 342 343 342 341 339 339 342 346 351 356 1 4 5 2 1 5 4 359 358 358 354 351 346 339 330 321 312 305 301 299 297 296 295 297 299 300 303 306 308 312 316
Height
3108 3108 3107 3107 3106 3106 3106 3106 3104 3103 3102 3101 3100 3098 3098 3098 3097 3097 3098 3098 3099 3098 3097 3097 3098 3097 3098 3099 3100 3101 3101 3101 3102 3102 3103 3103 3103 3103 3103 3102 3100 3099 3097 3095 3094 3095 3095 3096 3096 3096 3095 3095 3096 3097 3097 3097 3098 3099 3100 3101 3101 3102 3103 3105 3106 3106 3108 3110 3111 3113 3114 3115 3115 3119 3124 3128 3130 3133 3134 3137 3139 3142 3145 3147 3148 3150
3108 3107 3107 3107 3106 3105 3105 3105 3104 3102 3101 3100 3099 3098 3097 3097 3097 3096 3097 3097 3097 3096 3096 3096 3096 3096 3097 3099 3100 3100 3101 3101 3101 3101 3102 3102 3103 3102 3102 3102 3101 3099 3097 3095 3094 3094 3095 3095 3096 3095 3095 3095 3096 3097 3096 3096 3097 3098 3098 3099 3100 3100 3102 3104 3105 3106 3108 3109 3112 3114 3115 3115 3115 3118 3123 3126 3128 3130 3132 3134 3137 3140 3143 3145 3147 3149
3107 3106 3106 3106 3105 3105 3104 3104 3103 3102 3101 3099 3098 3097 3097 3096 3096 3096 3096 3096 3096 3096 3095 3095 3095 3095 3096 3098 3099 3100 3100 3100 3100 3101 3101 3101 3101 3102 3101 3101 3101 3098 3096 3095 3094 3093 3094 3094 3095 3095 3094 3094 3095 3096 3096 3096 3097 3097 3098 3099 3100 3100 3101 3103 3105 3106 3107 3108 3111 3113 3115 3117 3117 3118 3121 3123 3125 3127 3130 3132 3135 3137 3140 3143 3146 3147
3107 3106 3105 3105 3105 3104 3104 3103 3102 3101 3100 3099 3098 3097 3097 3096 3096 3096 3095 3095 3095 3095 3094 3094 3094 3094 3095 3097 3098 3099 3100 3100 3100 3100 3100 3100 3100 3100 3100 3100 3099 3097 3095 3095 3094 3093 3093 3093 3094 3095 3094 3094 3094 3095 3095 3095 3096 3097 3097 3099 3100 3101 3102 3103 3104 3105 3106 3107 3109 3111 3113 3117 3118 3117 3119 3122 3123 3125 3128 3130 3133 3135 3138 3141 3144 3146
3106 3105 3104 3104 3104 3104 3103 3102 3101 3100 3099 3099 3098 3097 3096 3096 3095 3095 3094 3094 3094 3094 3094 3094 3093 3094 3095 3096 3097 3098 3099 3099 3099 3099 3100 3100 3100 3100 3100 3099 3098 3096 3094 3094 3094 3093 3092 3091 3093 3094 3094 3093 3093 3094 3094 3094 3095 3095 3097 3098 3099 3100 3101 3103 3104 3105 3106 3106 3107 3109 3111 3115 3117 3118 3119 3122 3123 3124 3127 3129 3132 3134 3137 3140 3142 3144
3106 3105 3104 3104 3104 3104 3102 3102 3101 3100 3099 3098 3097 3097 3096 3095 3094 3094 3093 3093 3093 3092 3093 3093 3093 3094 3094 3096 3097 3097 3098 3099 3099 3099 3099 3099 3099 3100 3100 3099 3097 3095 3093 3093 3092 3092 3092 3090 3091 3092 3093 3093 3092 3092 3093 3093 3094 3094 3095 3097 3098 3099 3100 3102 3103 3104 3105 3105 3106 3108 3109 3112 3116 3118 3120 3121 3122 3124 3125 3128 3130 3132 3135 3138 3140 3142
3105 3104 3103 3103 3103 3102 3102 3101 3100 3100 3099 3098 3097 3096 3096 3095 3094 3094 3093 3093 3092 3092 3092 3092 3094 3095 3094 3094 3096 3097 3098 3098 3099 3099 3099 3099 3099 3099 3099 3098 3097 3095 3093 3092 3091 3091 3090 3089 3089 3090 3091 3091 3091 3091 3091 3091 3092 3093 3094 3095 3096 3097 3098 3100 3101 3103 3103 3104 3105 3107 3108 3111 3114 3116 3118 3119 3121 3123 3125 3127 3129 3131 3134 3136 3138 3140
3104 3104 3103 3102 3102 3101 3101 3101 3099 3099 3099 3097 3097 3096 3095 3095 3094 3094 3093 3092 3092 3090 3090 3091 3092 3093 3093 3093 3095 3096 3097 3097 3098 3098 3098 3099 3099 3098 3098 3097 3096 3094 3092 3090 3089 3089 3088 3087 3088 3088 3088 3088 3088 3089 3090 3090 3090 3091 3092 3093 3094 3095 3096 3097 3099 3101 3102 3103 3104 3105 3107 3109 3112 3114 3116 3117 3119 3121 3123 3125 3128 3130 3132 3134 3136 3139
3103 3103 3102 3101 3101 3102 3101 3100 3099 3099 3098 3096 3096 3095 3094 3094 3093 3092 3092 3091 3090 3088 3088 3090 3091 3091 3092 3093 3094 3095 3096 3097 3097 3097 3098 3099 3099 3098 3097 3096 3095 3094 3092 3089 3088 3087 3085 3084 3086 3086 3085 3085 3085 3086 3087 3088 3088 3089 3090 3090 3091 3092 3093 3094 3096 3098 3100 3101 3103 3104 3105 3108 3110 3112 3114 3116 3118 3119 3122 3124 3127 3129 3131 3133 3135 3136
3102 3101 3101 3101 3101 3101 3100 3099 3098 3098 3097 3095 3094 3094 3093 3092 3091 3091 3090 3090 3090 3088 3088 3090 3090 3090 3091 3093 3093 3093 3095 3096 3096 3096 3097 3098 3099 3098 3096 3095 3095 3094 3091 3089 3087 3086 3084 3082 3083 3083 3083 3083 3082 3083 3083 3084 3085 3086 3087 3088 3089 3090 3090 3091 3092 3094 3096 3098 3100 3102 3103 3106 3108 3110 3112 3114 3117 3119 3121 3123 3125 3127 3129 3131 3133 3134
3101 3099 3100 3101 3100 3100 3099 3098 3097 3097 3096 3095 3094 3093 3092 3091 3089 3089 3089 3089 3089 3088 3087 3088 3088 3087 3090 3093 3092 3092 3094 3095 3096 3097 3097 3098 3098 3097 3096 3095 3094 3092 3091 3088 3086 3085 3083 3081 3081 3080 3080 3080 3079 3079 3080 3080 3081 3082 3084 3085 3086 3087 3088 3088 3089 3091 3093 3095 3097 3100 3101 3104 3106 3106 3108 3111 3114 3117 3120 3121 3123 3124 3126 3128 3131 3133
3101 3099 3100 3100 3099 3099 3099 3097 3096 3096 3095 3094 3093 3093 3091 3089 3088 3088 3087 3088 3090 3089 3086 3086 3086 3084 3088 3092 3092 3092 3095 3096 3096 3097 3097 3097 3097 3096 3096 3093 3092 3091 3089 3086 3085 3084 3081 3079 3079 3078 3077 3078 3077 3077 3076 3077 3078 3078 3079 3081 3083 3084 3085 3085 3086 3087 3089 3091 3093 3096 3098 3101 3103 3103 3104 3107 3110 3114 3117 3119 3121 3122 3123 3125 3128 3130
3100 3100 3101 3099 3098 3098 3098 3097 3095 3095 3095 3094 3094 3093 3091 3090 3089 3089 3088 3088 3089 3090 3087 3086 3085 3084 3087 3091 3092 3093 3096 3096 3096 3097 3097 3096 3096 3096 3094 3092 3091 3091 3087 3086 3085 3082 3079 3077 3077 3075 3074 3074 3074 3074 3074 3074 3075 3074 3075 3076 3078 3080 3081 3082 3083 3084 3086 3087 3089 3092 3094 3097 3099 3100 3101 3104 3107 3110 3112 3115 3118 3119 3121 3122 3125 3127
3100 3099 3100 3100 3099 3099 3099 3097 3095 3095 3095 3094 3094 3093 3092 3091 3091 3091 3091 3089 3089 3090 3088 3086 3087 3088 3089 3091 3093 3094 3095 3096 3096 3097 3097 3096 3096 3095 3093 3091 3090 3089 3087 3086 3084 3080 3077 3075 3074 3073 3072 3071 3071 3072 3071 3071 3072 3072 3071 3072 3073 3075 3076 3078 3079 3080 3082 3084 3085 3088 3090 3092 3095 3096 3097 3100 3103 3105 3108 3111 3113 3115 3117 3118 3121 3124
3101 3099 3099 3100 3101 3100 3099 3098 3097 3096 3095 3094 3094 3093 3093 3093 3093 3092 3091 3091 3091 3090 3087 3086 3087 3090 3090 3092 3093 3094 3095 3096 3096 3096 3096 3095 3095 3094 3092 3090 3088 3087 3087 3086 3082 3079 3077 3073 3072 3070 3069 3068 3068 3068 3068 3068 3068 3068 3068 3068 3068 3070 3071 3073 3074 3075 3077 3079 3081 3083 3086 3088 3090 3092 3093 3095 3098 3101 3103 3106 3108 3110 3112 3113 3116 3120
3102 3100 3100 3101 3101 3100 3099 3099 3097 3096 3094 3094 3093 3093 3094 3094 3093 3091 3090 3091 3091 3089 3087 3087 3089 3091 3091 3093 3094 3095 3095 3096 3096 3096 3095 3094 3094 3094 3092 3089 3087 3086 3085 3083 3080 3078 3075 3072 3069 3067 3066 3066 3066 3066 3065 3065 3064 3064 3064 3063 3064 3065 3066 3068 3069 3070 3072 3074 3076 3078 3080 3083 3086 3088 3089 3091 3093 3096 3098 3101 3103 3105 3107 3109 3112 3114
3103 3101 3101 3102 3101 3099 3099 3098 3097 3096 3095 3094 3093 3093 3093 3093 3093 3091 3089 3088 3088 3088 3089 3090 3091 3093 3093 3094 3095 3095 3095 3095 3095 3095 3094 3093 3092 3091 3090 3087 3086 3085 3082 3080 3078 3076 3073 3070 3067 3065 3064 3064 3063 3063 3063 3062 3061 3060 3059 3059 3059 3060 3062 3063 3064 3065 3067 3069 3071 3073 3075 3078 3080 3083 3085 3087 3089 3092 3094 3096 3099 3101 3103 3105 3108 3111
3105 3103 3101 3102 3101 3099 3098 3098 3097 3096 3096 3095 3095 3094 3092 3091 3092 3091 3090 3088 3087 3086 3088 3089 3091 3093 3093 3094 3095 3095 3095 3095 3094 3094 3093 3091 3089 3089 3088 3086 3084 3082 3079 3077 3075 3073 3071 3068 3064 3062 3062 3062 3061 3061 3060 3059 3058 3057 3056 3056 3056 3057 3058 3059 3060 3061 3062 3064 3066 3068 3071 3073 3075 3077 3080 3083 3085 3087 3090 3092 3094 3096 3098 3101 3105 3108
3106 3104 3101 3101 3101 3100 3098 3098 3097 3097 3096 3096 3096 3094 3093 3092 3092 3091 3091 3091 3089 3088 3087 3086 3089 3092 3093 3094 3095 3095 3094 3094 3094 3093 3091 3089 3089 3088 3086 3084 3082 3079 3077 3074 3073 3071 3068 3065 3062 3060 3059 3059 3059 3058 3058 3057 3056 3055 3054 3053 3053 3054 3055 3056 3057 3057 3058 3060 3062 3064 3066 3068 3070 3072 3075 3078 3080 3083 3085 3087 3089 3092 3094 3096 3100 3103
3106 3105 3102 3101 3100 3099 3099 3099 3099 3099 3097 3097 3096 3095 3095 3095 3094 3092 3092 3092 3091 3090 3088 3086 3087 3092 3093 3094 3095 3094 3094 3093 3093 3092 3091 3089 3088 3086 3083 3081 3079 3077 3075 3073 3071 3068 3065 3062 3060 3058 3057 3056 3056 3056 3055 3055 3054 3053 3052 3051 3051 3051 3052 3053 3054 3054 3055 3056 3057 3059 3061 3063 3064 3067 3070 3072 3075 3078 3080 3082 3084 3087 3089 3092 3095 3097
3106 3105 3103 3101 3100 3099 3099 3099 3099 3099 3098 3097 3097 3096 3096 3095 3094 3093 3092 3093 3092 3091 3090 3088 3089 3092 3093 3093 3094 3094 3093 3093 3092 3091 3090 3088 3086 3083 3081 3080 3078 3076 3074 3072 3069 3066 3062 3059 3058 3056 3055 3054 3053 3053 3053 3052 3051 3051 3050 3050 3049 3049 3049 3049 3050 3051 3052 3053 3054 3055 3057 3059 3060 3061 3063 3066 3069 3072 3074 3077 3079 3082 3084 3087 3089 3092
3105 3105 3104 3102 3100 3099 3098 3098 3099 3099 3098 3098 3098 3098 3097 3096 3095 3093 3091 3092 3093 3091 3091 3090 3090 3092 3093 3092 3093 3093 3092 3092 3092 3089 3088 3087 3084 3081 3080 3079 3077 3075 3074 3071 3067 3063 3060 3057 3055 3054 3053 3052 3051 3051 3050 3050 3050 3049 3049 3048 3048 3048 3047 3047 3047 3047 3048 3049 3050 3052 3053 3054 3056 3057 3058 3061 3063 3065 3068 3071 3074 3077 3079 3081 3084 3087
3105 3105 3103 3102 3100 3099 3098 3098 3099 3098 3097 3098 3098 3098 3098 3097 3097 3096 3094 3094 3094 3092 3091 3090 3089 3091 3093 3092 3092 3092 3091 3090 3089 3087 3086 3084 3082 3080 3079 3078 3076 3074 3072 3069 3065 3062 3058 3055 3054 3052 3051 3050 3049 3048 3048 3048 3048 3047 3047 3047 3046 3046 3045 3045 3044 3044 3044 3045 3046 3047 3049 3050 3051 3053 3054 3055 3057 3059 3062 3064 3067 3071 3073 3075 3078 3081
3105 3105 3103 3101 3099 3099 3098 3098 3099 3098 3098 3099 3099 3098 3098 3097 3098 3098 3096 3096 3095 3092 3091 3090 3089 3091 3093 3091 3091 3092 3090 3088 3087 3086 3084 3082 3080 3079 3078 3077 3075 3072 3070 3068 3065 3061 3057 3054 3052 3050 3048 3047 3047 3046 3046 3046 3045 3045 3045 3045 3044 3044 3043 3043 3042 3042 3042 3042 3042 3043 3044 3045 3046 3048 3049 3050 3051 3053 3055 3057 3060 3063 3066 3069 3072 3075
3105 3105 3104 3101 3098 3098 3098 3097 3098 3098 3099 3100 3099 3099 3098 3097 3097 3097 3096 3096 3095 3093 3094 3093 3090 3089 3090 3090 3090 3090 3089 3087 3087 3085 3082 3080 3079 3077 3076 3074 3072 3071 3068 3066 3063 3060 3056 3053 3051 3049 3047 3046 3045 3045 3044 3043 3043 3042 3042 3041 3041 3041 3041 3040 3040 3040 3040 3040 3040 3040 3040 3040 3041 3042 3043 3045 3046 3047 3049 3051 3053 3056 3059 3062 3065 3069
3105 3105 3105 3102 3099 3098 3098 3098 3099 3099 3100 3100 3099 3099 3098 3097 3096 3096 3095 3095 3094 3093 3094 3093 3090 3087 3087 3088 3089 3088 3087 3087 3085 3083 3081 3080 3078 3076 3074 3073 3071 3070 3067 3065 3062 3058 3054 3051 3049 3047 3045 3044 3044 3043 3042 3041 3040 3039 3039 3038 3038 3038 3038 3038 3038 3038 3038 3037 3037 3037 3037 3037 3037 3037 3038 3038 3039 3041 3042 3044 3046 3048 3051 3055 3058 3062
3105 3105 3104 3104 3102 3101 3101 3100 3100 3100 3099 3099 3098 3098 3097 3097 3096 3096 3096 3095 3095 3094 3093 3093 3091 3088 3087 3087 3088 3087 3087 3086 3084 3082 3080 3078 3076 3074 3072 3071 3070 3069 3066 3063 3061 3057 3052 3049 3047 3045 3044 3043 3042 3041 3040 3038 3037 3036 3036 3036 3035 3035 3034 3034 3034 3034 3034 3034 3034 3034 3034 3033 3033 3033 3033 3033 3033 3034 3035 3037 3039 3041 3044 3047 3050 3053
3105 3104 3103 3103 3102 3102 3101 3100 3100 3100 3099 3098 3097 3097 3097 3096 3096 3096 3096 3096 3095 3095 3092 3091 3090 3089 3088 3088 3087 3087 3086 3085 3083 3081 3079 3077 3075 3073 3071 3070 3069 3067 3063 3061 3058 3054 3050 3048 3045 3043 3042 3041 3040 3039 3038 3036 3035 3034 3033 3033 3032 3032 3031 3030 3030 3030 3030 3029 3029 3029 3029 3028 3028 3027 3027 3028 3028 3028 3028 3029 3031 3034 3036 3039 3042 3045
3104 3103 3103 3102 3102 3101 3100 3099 3099 3099 3098 3096 3096 3096 3096 3095 3095 3095 3096 3095 3095 3094 3092 3090 3089 3088 3087 3087 3087 3086 3086 3083 3081 3080 3078 3076 3073 3072 3071 3069 3067 3064 3061 3058 3055 3051 3048 3046 3043 3041 3040 3039 3039 3038 3036 3035 3033 3032 3031 3030 3029 3028 3027 3027 3026 3026 3025 3024 3024 3023 3022 3021 3021 3021 3021 3022 3022 3023 3023 3023 3024 3026 3028 3032 3035 3037
3103 3102 3102 3102 3101 3100 3099 3099 3098 3098 3097 3095 3094 3095 3095 3095 3095 3094 3094 3094 3094 3093 3092 3090 3090 3088 3087 3086 3086 3086 3085 3082 3080 3078 3076 3074 3072 3071 3070 3067 3064 3061 3059 3055 3052 3049 3046 3044 3041 3039 3038 3037 3037 3036 3034 3033 3031 3030 3029 3028 3026 3025 3024 3023 3023 3022 3022 3021 3020 3018 3016 3014 3013 3014 3014 3015 3016 3017 3017 3018 3018 3019 3021 3024 3027 3031
3102 3102 3101 3101 3100 3098 3097 3097 3097 3097 3096 3095 3093 3093 3093 3093 3093 3093 3093 3093 3092 3091 3090 3090 3089 3087 3087 3086 3086 3085 3083 3081 3078 3076 3074 3073 3071 3070 3069 3065 3062 3060 3057 3053 3049 3046 3044 3042 3039 3038 3036 3036 3035 3034 3033 3031 3029 3028 3027 3025 3024 3023 3022 3021 3020 3020 3019 3018 3016 3013 3011 3010 3008 3008 3008 3009 3010 3011 3012 3013 3013 3014 3015 3017 3020 3024
3102 3101 3101 3101 3099 3097 3096 3095 3095 3095 3094 3093 3092 3092 3092 3092 3092 3091 3091 3091 3090 3090 3089 3088 3087 3086 3086 3086 3085 3084 3081 3079 3077 3075 3073 3071 3070 3069 3067 3064 3061 3059 3056 3051 3047 3044 3042 3039 3038 3036 3035 3034 3034 3032 3031 3029 3028 3026 3025 3023 3022 3021 3020 3019 3018 3017 3016 3014 3012 3010 3008 3006 3005 3004 3004 3005 3006 3006 3006 3007 3007 3008 3009 3010 3013 3017
3101 3101 3101 3101 3099 3097 3096 3095 3094 3094 3092 3091 3091 3091 3091 3091 3090 3090 3090 3089 3088 3087 3087 3086 3086 3086 3085 3085 3084 3082 3079 3077 3075 3073 3071 3069 3067 3066 3064 3062 3060 3058 3055 3050 3046 3043 3041 3038 3036 3035 3033 3033 3032 3030 3029 3027 3026 3024 3023 3022 3021 3020 3019 3018 3016 3014 3013 3012 3009 3007 3005 3003 3002 3001 3000 3000 3001 3001 3001 3001 3001 3002 3003 3005 3007 3010
3101 3101 3100 3100 3099 3097 3095 3094 3094 3092 3091 3090 3091 3090 3090 3090 3089 3088 3088 3088 3087 3085 3085 3085 3085 3085 3085 3084 3082 3080 3078 3076 3073 3072 3071 3068 3065 3064 3062 3060 3059 3057 3053 3048 3045 3042 3040 3037 3035 3034 3032 3031 3030 3028 3027 3026 3024 3022 3021 3020 3019 3018 3017 3016 3014 3012 3011 3009 3007 3004 3002 3000 2999 2997 2996 2996 2996 2995 2995 2996 2996 2996 2997 2999 3002 3005
3100 3100 3099 3099 3098 3096 3095 3094 3093 3091 3090 3090 3090 3090 3089 3089 3088 3088 3087 3087 3087 3086 3085 3085 3085 3085 3084 3083 3080 3078 3077 3075 3072 3071 3070 3067 3064 3062 3061 3059 3058 3055 3051 3047 3044 3041 3039 3037 3034 3032 3031 3029 3028 3026 3025 3024 3022 3020 3019 3018 3018 3017 3016 3014 3013 3011 3009 3007 3004 3001 2999 2997 2995 2994 2993 2992 2992 2991 2990 2990 2991 2991 2992 2993 2996 2999
3098 3099 3098 3097 3097 3095 3094 3093 3092 3090 3089 3089 3089 3089 3089 3088 3088 3088 3087 3086 3086 3086 3085 3085 3084 3084 3082 3081 3079 3077 3076 3074 3072 3071 3068 3065 3064 3062 3059 3058 3056 3053 3050 3046 3042 3040 3038 3036 3034 3031 3030 3028 3026 3025 3023 3022 3021 3019 3018 3017 3016 3015 3014 3013 3011 3009 3007 3005 3002 2999 2996 2993 2992 2991 2990 2989 2989 2988 2987 2987 2987 2987 2988 2989 2991 2994
3097 3097 3097 3096 3096 3095 3093 3092 3091 3090 3089 3088 3088 3088 3088 3088 3087 3087 3085 3085 3085 3084 3084 3084 3083 3082 3080 3079 3077 3076 3074 3072 3072 3071 3068 3065 3063 3061 3058 3057 3055 3052 3048 3045 3042 3039 3037 3035 3033 3031 3029 3027 3025 3023 3022 3020 3019 3017 3016 3016 3014 3013 3012 3011 3009 3008 3006 3003 3000 2997 2995 2993 2990 2989 2988 2987 2986 2985 2985 2985 2985 2985 2985 2985 2987 2989
3096 3096 3096 3095 3095 3094 3093 3091 3090 3089 3089 3087 3086 3086 3086 3086 3086 3085 3084 3083 3083 3083 3083 3082 3081 3080 3078 3077 3075 3074 3072 3071 3071 3070 3066 3062 3061 3059 3056 3056 3054 3051 3047 3044 3041 3039 3036 3035 3033 3030 3028 3026 3024 3022 3020 3019 3018 3016 3016 3015 3013 3012 3010 3009 3008 3007 3005 3003 3000 2997 2994 2992 2990 2988 2987 2986 2985 2984 2984 2983 2983 2984 2984 2984 2985 2987
3095 3095 3095 3095 3094 3093 3093 3091 3090 3089 3088 3086 3086 3085 3085 3085 3085 3084 3083 3082 3082 3082 3082 3081 3080 3078 3077 3075 3074 3072 3071 3069 3069 3067 3063 3060 3059 3057 3055 3054 3052 3049 3046 3043 3040 3038 3035 3033 3031 3029 3027 3025 3023 3021 3019 3017 3016 3015 3014 3013 3011 3010 3009 3008 3007 3006 3004 3003 3000 2996 2993 2991 2989 2987 2986 2985 2984 2983 2982 2982 2982 2982 2982 2983 2985 2987
3094 3094 3094 3093 3093 3092 3092 3091 3089 3088 3087 3086 3085 3085 3085 3084 3084 3084 3083 3082 3082 3082 3081 3080 3078 3077 3075 3074 3072 3071 3070 3068 3066 3064 3061 3058 3057 3055 3054 3053 3050 3048 3045 3042 3039 3037 3034 3032 3030 3028 3026 3023 3021 3019 3017 3015 3014 3013 3013 3012 3010 3008 3008 3007 3006 3005 3004 3002 3000 2996 2993 2990 2988 2987 2986 2985 2984 2982 2980 2980 2980 2981 2981 2981 2983 2985
3092 3092 3092 3092 3091 3091 3090 3090 3088 3087 3086 3084 3084 3084 3084 3083 3084 3083 3082 3082 3081 3080 3079 3078 3077 3076 3074 3072 3071 3070 3068 3066 3063 3061 3059 3057 3056 3054 3052 3051 3049 3047 3044 3041 3039 3036 3034 3031 3029 3027 3025 3022 3020 3018 3016 3014 3013 3012 3011 3011 3009 3007 3006 3006 3005 3004 3003 3002 3000 2997 2994 2992 2990 2988 2986 2985 2984 2982 2980 2979 2979 2979 2979 2979 2980 2981
3090 3090 3090 3090 3089 3089 3089 3088 3086 3085 3084 3083 3083 3082 3082 3083 3083 3082 3081 3081 3080 3079 3078 3077 3076 3074 3073 3071 3070 3068 3066 3064 3062 3060 3058 3056 3054 3052 3051 3049 3047 3046 3043 3041 3038 3035 3033 3031 3028 3026 3024 3021 3019 3017 3014 3013 3012 3011 3010 3009 3008 3006 3005 3004 3004 3003 3003 3001 2999 2997 2995 2993 2991 2989 2987 2985 2984 2983 2981 2979 2978 2978 2977 2977 2977 2978
3089 3088 3088 3087 3087 3087 3087 3086 3085 3084 3083 3082 3082 3082 3081 3082 3082 3080 3079 3079 3079 3078 3077 3076 3075 3073 3071 3070 3069 3067 3064 3062 3060 3059 3057 3055 3053 3051 3049 3048 3046 3044 3042 3040 3037 3034 3032 3030 3028 3025 3023 3020 3018 3016 3014 3012 3010 3009 3008 3008 3007 3005 3004 3003 3003 3002 3002 3000 2999 2997 2995 2994 2992 2990 2988 2987 2985 2984 2983 2981 2979 2978 2977 2976 2976 2975
3087 3087 3086 3086 3085 3085 3084 3084 3084 3083 3082 3081 3081 3081 3080 3080 3079 3078 3078 3077 3077 3077 3076 3075 3074 3072 3070 3068 3067 3065 3063 3061 3059 3057 3055 3054 3052 3050 3048 3047 3045 3043 3041 3039 3036 3034 3031 3029 3027 3025 3022 3020 3017 3015 3013 3011 3010 3008 3007 3006 3006 3005 3003 3002 3001 3001 3001 3000 2998 2997 2995 2993 2992 2990 2989 2988 2986 2985 2984 2983 2981 2979 2979 2978 2977 2975
3086 3085 3085 3084 3084 3084 3083 3083 3083 3083 3082 3080 3080 3079 3079 3078 3077 3077 3076 3076 3075 3075 3075 3074 3073 3071 3069 3067 3064 3063 3061 3059 3057 3056 3054 3052 3051 3049 3047 3045 3043 3041 3040 3038 3035 3033 3031 3029 3027 3024 3022 3019 3017 3015 3013 3011 3009 3008 3006 3005 3005 3004 3003 3001 3000 3000 2999 2998 2997 2996 2995 2993 2992 2990 2989 2987 2986 2985 2984 2983 2981 2981 2980 2980 2979 2979
3084 3084 3083 3083 3083 3083 3082 3082 3082 3082 3081 3080 3079 3078 3077 3077 3076 3076 3075 3074 3074 3074 3074 3073 3071 3069 3067 3065 3063 3061 3060 3058 3056 3054 3053 3051 3049 3048 3046 3044 3042 3040 3038 3037 3035 3032 3030 3028 3026 3024 3022 3019 3017 3015 3013 3011 3009 3007 3006 3005 3003 3002 3001 3001 3000 2999 2998 2997 2996 2995 2994 2993 2991 2990 2988 2987 2986 2984 2983 2982 2982 2982 2981 2981 2981 2980
3083 3082 3082 3082 3082 3082 3081 3081 3081 3081 3080 3080 3079 3078 3077 3077 3075 3074 3073 3073 3072 3072 3072 3070 3068 3067 3065 3063 3062 3060 3058 3057 3055 3053 3052 3050 3048 3046 3045 3043 3041 3039 3037 3035 3034 3032 3029 3028 3026 3024 3021 3019 3017 3015 3013 3011 3009 3007 3006 3004 3003 3001 3000 2999 2998 2998 2997 2996 2995 2994 2993 2992 2990 2989 2988 2987 2986 2985 2983 2983 2982 2982 2982 2982 2981 2981
3081 3081 3081 3082 3081 3081 3080 3080 3080 3079 3079 3079 3078 3077 3077 3076 3074 3073 3072 3071 3071 3071 3070 3068 3066 3065 3063 3061 3060 3058 3057 3055 3054 3052 3051 3049 3047 3045 3044 3042 3040 3038 3036 3035 3033 3031 3029 3027 3025 3023 3021 3019 3017 3014 3012 3010 3009 3007 3006 3004 3002 3001 2999 2998 2997 2996 2995 2994 2993 2992 2992 2991 2990 2989 2988 2987 2986 2985 2984 2983 2983 2982 2982 2981 2981 2980
3080 3079 3080 3080 3080 3079 3079 3079 3078 3078 3078 3078 3077 3076 3075 3074 3073 3072 3071 3070 3070 3070 3068 3066 3064 3063 3061 3060 3059 3057 3055 3054 3053 3051 3049 3048 3047 3045 3043 3041 3039 3038 3036 3034 3032 3030 3028 3026 3024 3023 3021 3019 3017 3014 3012 3010 3008 3007 3005 3003 3002 3001 2999 2998 2996 2995 2993 2992 2991 2990 2990 2989 2989 2988 2988 2986 2985 2984 2983 2982 2982 2981 2981 2980 2980 2979
3079 3078 3079 3078 3078 3078 3078 3077 3076 3076 3076 3076 3075 3074 3073 3072 3071 3071 3070 3069 3070 3069 3067 3065 3063 3062 3060 3059 3058 3056 3054 3053 3052 3050 3048 3047 3045 3044 3042 3040 3038 3037 3035 3033 3031 3029 3028 3026 3024 3022 3020 3019 3017 3015 3013 3011 3008 3006 3005 3003 3001 3000 2999 2998 2996 2995 2993 2992 2990 2989 2988 2987 2987 2986 2986 2985 2984 2982 2981 2980 2980 2979 2979 2978 2978 2977
3077 3077 3077 3077 3076 3076 3076 3075 3074 3074 3074 3074 3074 3073 3072 3071 3070 3069 3068 3068 3068 3068 3066 3064 3062 3061 3060 3058 3057 3055 3054 3052 3050 3049 3047 3046 3044 3043 3041 3039 3037 3036 3034 3032 3030 3029 3027 3025 3023 3022 3020 3018 3016 3015 3013 3011 3009 3007 3005 3003 3001 2999 2998 2997 2996 2994 2993 2991 2990 2988 2987 2986 2986 2985 2984 2983 2982 2981 2980 2978 2978 2977 2977 2976 2975 2975